{"data":{"norad_id":53603,"epoch":"2026-05-25T00:07:00.977088Z","epoch_age_seconds":64764,"freshness":"FRESH","line1":"1 53603U 22104R   26145.00487242  .00000053  00000+0  21428-4 0  9999","line2":"2 53603  53.2139 256.7012 0001235  90.6503 269.4630 15.08833376207204","mean_motion":15.08833376,"eccentricity":0.0001235,"inclination_deg":53.2139,"raan_deg":256.7012,"arg_perigee_deg":90.6503,"mean_anomaly_deg":269.463,"bstar":2.1428e-5,"rev_number":20720,"period_min":95.43797366264,"perigee_km":538.90927522766,"apogee_km":540.61799668474,"semimajor_km":6917.9006359562,"source":"CELESTRAK","updated_at":"2026-05-25T13:38:17.476116Z"}}